Location: Eurasberg
(48.3353°N, 11.0839°E)
Time: 15:19:56
(UTC+00:00)

CZ-4C R/B - Pass Details

Date: 18 January 2026
Orbit: 482 x 1496 km, 63.4° (Epoch: 18 February)

Event Time Altitude Azimuth Distance (km) Brightness Sun altitude
Exits shadow 06:00:11 - 322° (NW) 2,965 4.5 -9.8°
Reaches altitude 10° 06:00:55 10° 324° (NW) 2,724 4.3 -9.6°
Maximum altitude 06:07:17 49° 39° (NE) 1,472 3.6 -8.7°
Drops below altitude 10° 06:15:16 10° 112° (ESE) 3,405 7.1 -7.4°
Sets 06:18:34 0° 118° (ESE) 4,480 8.5 -6.9°
